[[{"header":{"parameterUnit":"m.s-1","parameterCategory":1,"la1":30.2991,"la2":30.254,"lo1":-89.0895,"lo2":-89.0444,"dy":0.0017,"dx":0.0017,"nx":28,"ny":28,"refTime":"2023-07-30T03:00:00:Z","depth":0,"parameterNumber":2,"parameterNumberName":"U-component_of_WINDS"},"data":[0,0,0,0,0,0,0,0,0,0,0,0,0,0,0,0,0,0,0,0,0,0,0,0,0,0,0,0,0,0,0,0,0,0,0,0,0,0,0,0,0,0,0,0,0,0,0,0,0,0,0,0,0,0,0,0,0,0,4.1591,4.1593,0,4.1741,4.1742,4.1744,4.1684,4.1681,4.1677,4.1674,4.183,4.1838,4.1845,0,0,0,0,0,0,0,0,0,0,0,0,0,4.1256,4.1262,4.1591,4.1593,4.1595,4.174,4.1742,4.1744,4.1685,4.1681,4.1676,4.1672,4.1828,4.1837,4.1846,0,0,0,0,0,0,0,0,0,0,0,0,0,4.1403,4.1264,4.159,4.1582,4.1583,4.174,4.1743,4.1745,4.1686,4.168,4.1675,4.167,4.1825,4.1836,4.1847,4.2022,0,0,4.1881,4.1886,0,0,0,0,0,0,0,0,4.1395,4.1416,4.1582,4.1583,4.1584,4.1688,4.1682,4.1838,4.1687,4.1647,4.1674,4.1668,4.1788,4.1802,4.1841,4.2029,4.2036,4.1882,4.1889,4.1894,4.1897,0,0,0,0,0,0,0,4.1385,4.1409,4.165,4.1584,4.1586,4.1572,4.1587,4.1711,4.1745,4.165,4.1646,4.1664,4.1787,4.1831,4.1845,4.2038,4.1882,4.1892,4.1899,4.1903,4.2377,4.2383,0,0,0,0,0,0,4.1374,4.1401,4.1645,4.1655,4.1475,4.1582,4.1599,4.166,4.1744,4.1751,4.1669,4.1661,4.1814,4.1832,4.185,4.206,4.1894,4.1904,4.1911,4.2371,4.2378,4.2385,0,0,0,0,0,0,4.1367,4.1396,4.1639,4.1527,4.1557,4.1594,4.1663,4.1666,4.1709,4.1758,4.1764,4.1707,4.1811,4.1834,4.1979,4.2065,4.1909,4.1919,4.2364,4.2373,4.2382,4.2482,0,0,0,0,0,0,4.1358,4.1394,4.146,4.1529,4.1563,4.1766,4.1668,4.1673,4.1728,4.172,4.1795,4.1802,4.1808,4.1963,4.199,4.2077,4.1928,4.2357,4.2368,4.2379,4.2471,4.2493,4.2512,0,0,0,0,0,4.1346,4.1483,4.1464,4.1494,4.1646,4.1771,4.179,4.1794,4.1735,4.1803,4.1834,4.18,4.2051,4.1978,4.2009,4.21,4.2352,4.2365,4.2378,4.2462,4.2489,4.2511,0,0,0,0,0,0,4.1425,4.1492,4.1471,4.1635,4.1697,4.176,4.1845,4.1822,4.1903,4.1892,4.1893,4.1911,4.2061,4.2095,4.2013,4.2274,4.2193,4.2213,4.2246,4.2272,4.2292,4.228,4.1937,0,0,0,0,0,4.1461,4.1556,4.161,4.1749,4.1781,4.1808,4.1862,4.1859,4.1925,4.1951,4.1993,4.2059,4.2152,4.2214,4.2303,4.2476,4.2491,4.2554,4.2574,4.259,4.2608,4.2702,4.273,4.2428,4.2428,4.2428,0,0,4.1538,4.1586,4.1646,4.1766,4.1814,4.1913,4.1831,4.1939,4.2012,4.1968,4.2107,4.214,4.2214,4.2374,4.2446,4.2407,4.2694,4.2607,4.262,4.2628,4.2718,4.2747,4.2772,4.2437,4.2436,4.2434,0,0,4.1727,4.1773,4.1894,4.1944,4.2017,4.2034,4.2063,4.213,4.215,4.2289,4.2258,4.2346,4.2507,4.2561,4.2609,4.2819,4.2791,4.2848,4.2954,4.3046,4.307,4.3091,4.3166,4.3193,4.2865,4.2865,4.2866,0,4.1813,4.196,4.1959,4.207,4.2124,4.2087,4.221,4.2258,4.2358,4.2396,4.2351,4.2552,4.2599,4.2771,4.2822,4.2862,4.2896,4.2839,4.3066,4.3087,4.3107,4.3179,4.3207,4.2872,4.2871,4.287,4.287,0,4.2062,4.2164,4.2253,4.2348,4.2412,4.2529,4.2546,4.2612,4.2603,4.2625,4.2768,4.2823,4.2922,4.2963,4.2956,4.3134,4.3107,4.3064,4.2983,4.3142,4.3209,4.3237,4.2881,4.2879,4.2877,4.2875,0,0,4.2306,4.2399,4.2432,4.2474,4.2553,4.2632,4.2747,4.2843,4.2899,4.2969,4.3065,4.3203,4.3163,4.3218,4.3217,4.3298,4.346,4.3245,4.3246,4.3283,4.366,4.3692,4.3724,4.3442,4.3447,4.3452,4.3654,0,4.2501,4.2701,4.2704,4.2888,4.2983,4.2949,4.3049,4.3109,4.3133,4.3217,4.3244,4.3341,4.3281,4.3314,4.3392,4.3424,4.3536,4.3409,4.3533,4.3537,4.3515,4.3759,4.3793,4.3981,4.368,4.3685,4.3688,0,4.2756,4.2832,4.3026,4.309,4.313,4.322,4.3308,4.3389,4.3456,4.3467,4.3529,4.3516,4.3634,4.3548,4.3711,4.3625,4.3676,4.3699,4.3707,4.3718,4.3622,4.3777,4.4041,4.4069,4.3729,4.3726,4.3723,0,4.2914,4.3066,4.3201,4.3239,4.3317,4.3381,4.3417,4.3479,4.3536,4.3614,4.3651,4.3742,4.3792,4.3863,4.3875,4.3812,4.4039,4.3954,4.4052,4.4052,4.4101,4.4098,4.4377,4.4135,4.4134,4.4134,4.4133,0,4.3132,4.3252,4.3273,4.3356,4.3489,4.3492,4.3624,4.3655,4.371,4.38,4.3777,4.3861,4.3872,4.396,4.3971,4.4104,4.4127,4.414,4.4142,4.4142,4.4141,4.4175,4.4163,4.4141,4.414,4.4138,4.4137,0,4.3331,4.3351,4.3496,4.3558,4.3576,4.3672,4.3725,4.3805,4.3826,4.394,4.3967,4.4,4.4102,4.4121,4.4243,4.4249,4.4409,4.4397,4.4386,4.4384,4.4481,4.4472,4.4793,4.4835,4.4565,4.4567,4.4569,0,4.3469,4.356,4.3632,4.3689,4.3728,4.3821,4.3879,4.3886,4.3947,4.403,4.4101,4.42,4.428,4.4445,4.4481,4.4573,4.4563,4.467,4.4577,4.4575,4.4565,4.4559,4.4568,4.4687,4.469,4.4693,4.4694,0,4.3712,4.3716,4.38,4.3888,4.3958,4.4028,4.4094,4.4142,4.4157,4.4228,4.4331,4.4393,4.4516,4.4615,4.4707,4.4745,4.4724,4.4723,4.4751,4.4752,4.4742,4.4749,4.4434,4.4716,4.4714,4.4712,4.4711,4.471,4.3885,4.3964,4.4026,4.4121,4.4171,4.4233,4.4311,4.4341,4.4427,4.4526,4.4525,4.4639,4.4704,4.4825,4.4869,4.4958,4.4925,4.4965,4.4975,4.4985,4.4994,4.4728,4.4975,4.4975,4.4974,4.4974,4.4973,0,4.4126,4.4164,4.4251,4.4343,4.4418,4.4389,4.446,4.4525,4.4624,4.4686,4.4765,4.4884,4.498,4.5023,4.5118,4.5181,4.5174,4.5206,4.5202,4.5211,4.5018,4.4985,4.5211,4.5211,4.5211,4.5211,4.5211,4.5211,4.426,4.4392,4.4405,4.4562,4.4599,4.4709,4.4752,4.481,4.4859,4.4992,4.5072,4.5099,4.5154,4.5252,4.5339,4.535,4.5386,4.5423,4.5429,4.5248,4.5224,4.5201,4.517,4.5431,4.5431,4.5614,4.5615,4.5617]},{"header":{"parameterUnit":"m.s-1","parameterCategory":1,"la1":30.2991,"la2":30.254,"lo1":-89.0895,"lo2":-89.0444,"dy":0.0017,"dx":0.0017,"nx":28,"ny":28,"refTime":"2023-07-30T03:00:00:Z","depth":0,"parameterNumber":3,"parameterNumberName":"V-component_of_WINDS"},"data":[0,0,0,0,0,0,0,0,0,0,0,0,0,0,0,0,0,0,0,0,0,0,0,0,0,0,0,0,0,0,0,0,0,0,0,0,0,0,0,0,0,0,0,0,0,0,0,0,0,0,0,0,0,0,0,0,0,0,-0.103,-0.103,0,-0.1017,-0.1017,-0.1016,-0.1028,-0.1028,-0.1029,-0.1029,-0.1013,-0.1012,-0.1011,0,0,0,0,0,0,0,0,0,0,0,0,0,-0.1063,-0.1062,-0.103,-0.103,-0.103,-0.1017,-0.1017,-0.1016,-0.1028,-0.1028,-0.1029,-0.1029,-0.1013,-0.1012,-0.1011,0,0,0,0,0,0,0,0,0,0,0,0,0,-0.1049,-0.1062,-0.103,-0.1034,-0.1034,-0.1017,-0.1017,-0.1016,-0.1027,-0.1028,-0.1029,-0.103,-0.1013,-0.1012,-0.1011,-0.0988,0,0,-0.1007,-0.1006,0,0,0,0,0,0,0,0,-0.105,-0.1048,-0.1033,-0.1033,-0.1034,-0.1025,-0.1022,-0.1007,-0.1027,-0.103,-0.1029,-0.103,-0.1016,-0.1014,-0.101,-0.0988,-0.0987,-0.1007,-0.1006,-0.1005,-0.1005,0,0,0,0,0,0,0,-0.1051,-0.1048,-0.1025,-0.1033,-0.1033,-0.1035,-0.1034,-0.1019,-0.1019,-0.103,-0.103,-0.1029,-0.1016,-0.1012,-0.101,-0.0987,-0.1007,-0.1005,-0.1005,-0.1004,-0.0945,-0.0944,0,0,0,0,0,0,-0.1051,-0.1049,-0.1025,-0.1024,-0.1044,-0.1034,-0.1033,-0.1027,-0.1019,-0.1019,-0.1028,-0.1029,-0.1013,-0.1011,-0.1009,-0.0982,-0.1005,-0.1004,-0.1003,-0.0946,-0.0945,-0.0944,0,0,0,0,0,0,-0.1052,-0.1049,-0.1026,-0.1037,-0.1034,-0.1033,-0.1026,-0.1026,-0.1022,-0.1018,-0.1018,-0.1024,-0.1014,-0.1011,-0.0994,-0.0982,-0.1003,-0.1002,-0.0947,-0.0945,-0.0944,-0.0928,0,0,0,0,0,0,-0.1053,-0.1049,-0.1041,-0.1037,-0.1033,-0.1011,-0.1025,-0.1025,-0.102,-0.1021,-0.1014,-0.1013,-0.1014,-0.0996,-0.0992,-0.0981,-0.1001,-0.0948,-0.0946,-0.0945,-0.093,-0.0927,-0.0924,0,0,0,0,0,-0.1054,-0.1037,-0.1041,-0.1038,-0.1023,-0.101,-0.1008,-0.101,-0.1019,-0.101,-0.1008,-0.1014,-0.0984,-0.0994,-0.099,-0.0978,-0.0948,-0.0946,-0.0945,-0.0931,-0.0927,-0.0924,0,0,0,0,0,0,-0.1039,-0.1036,-0.1041,-0.1021,-0.1016,-0.1012,-0.1001,-0.1006,-0.0997,-0.0999,-0.1001,-0.1,-0.0981,-0.0978,-0.0989,-0.0956,-0.0967,-0.0965,-0.0958,-0.0955,-0.0952,-0.0953,-0.1,0,0,0,0,0,-0.1033,-0.1023,-0.1021,-0.1004,-0.1002,-0.1002,-0.0996,-0.0999,-0.0993,-0.099,-0.0987,-0.098,-0.0969,-0.0962,-0.0952,-0.093,-0.0928,-0.092,-0.0917,-0.0915,-0.0912,-0.09,-0.0896,-0.0938,-0.0938,-0.0938,0,0,-0.1021,-0.1019,-0.1012,-0.1001,-0.0997,-0.0986,-0.1,-0.0987,-0.0979,-0.0988,-0.0971,-0.0969,-0.0961,-0.0942,-0.0933,-0.0938,-0.09,-0.0912,-0.0911,-0.0909,-0.0898,-0.0894,-0.089,-0.0937,-0.0937,-0.0937,0,0,-0.0994,-0.0991,-0.0977,-0.0973,-0.0968,-0.0968,-0.0965,-0.096,-0.0959,-0.0943,-0.0949,-0.0939,-0.0921,-0.0915,-0.091,-0.0882,-0.0887,-0.0879,-0.0863,-0.0852,-0.0848,-0.0845,-0.0835,-0.0831,-0.0877,-0.0877,-0.0876,0,-0.098,-0.0964,-0.0969,-0.0956,-0.0951,-0.096,-0.0945,-0.0941,-0.0932,-0.0928,-0.0935,-0.0912,-0.0908,-0.0887,-0.088,-0.0876,-0.0872,-0.0879,-0.0849,-0.0846,-0.0843,-0.0833,-0.0829,-0.0876,-0.0876,-0.0876,-0.0876,0,-0.0946,-0.0936,-0.0925,-0.0917,-0.0911,-0.0897,-0.0899,-0.0892,-0.0895,-0.0895,-0.0878,-0.0874,-0.0863,-0.0858,-0.0861,-0.0838,-0.0841,-0.0848,-0.086,-0.0838,-0.0828,-0.0824,-0.0874,-0.0874,-0.0875,-0.0875,0,0,-0.0907,-0.0904,-0.0899,-0.0896,-0.0891,-0.0882,-0.0869,-0.086,-0.0854,-0.0848,-0.0836,-0.0821,-0.0828,-0.0822,-0.0824,-0.0814,-0.0791,-0.0822,-0.0822,-0.0816,-0.0765,-0.0759,-0.0754,-0.0795,-0.0794,-0.0794,-0.0765,0,-0.0879,-0.0857,-0.0861,-0.0839,-0.0829,-0.0838,-0.0827,-0.0822,-0.0822,-0.0812,-0.0812,-0.0801,-0.0811,-0.0807,-0.0798,-0.0796,-0.0781,-0.0798,-0.0783,-0.0783,-0.0784,-0.0749,-0.0743,-0.0716,-0.0762,-0.0761,-0.0761,0,-0.0843,-0.0837,-0.0814,-0.0811,-0.0807,-0.0797,-0.0789,-0.078,-0.0775,-0.0776,-0.077,-0.0774,-0.0761,-0.0774,-0.0754,-0.0766,-0.076,-0.0759,-0.0758,-0.0755,-0.0769,-0.0745,-0.0708,-0.0703,-0.0755,-0.0755,-0.0756,0,-0.0816,-0.0802,-0.0787,-0.0784,-0.078,-0.0773,-0.0771,-0.0767,-0.0761,-0.0754,-0.075,-0.0741,-0.0736,-0.0728,-0.073,-0.074,-0.071,-0.0723,-0.0709,-0.0709,-0.0701,-0.0702,-0.0661,-0.07,-0.07,-0.07,-0.07,0,-0.0784,-0.0769,-0.0774,-0.0765,-0.0749,-0.0754,-0.0738,-0.0737,-0.0733,-0.0723,-0.0731,-0.0721,-0.0724,-0.0714,-0.0716,-0.0699,-0.0697,-0.0696,-0.0697,-0.0695,-0.0695,-0.069,-0.0692,-0.0699,-0.0699,-0.0699,-0.0699,0,-0.075,-0.0753,-0.0737,-0.0735,-0.0735,-0.0723,-0.0721,-0.0712,-0.0713,-0.07,-0.0697,-0.0698,-0.0687,-0.0689,-0.0676,-0.0677,-0.0656,-0.066,-0.0658,-0.0659,-0.0644,-0.0645,-0.0598,-0.0592,-0.0635,-0.0635,-0.0635,0,-0.0728,-0.0718,-0.0716,-0.071,-0.0708,-0.0698,-0.0693,-0.0698,-0.0692,-0.0686,-0.0677,-0.0667,-0.0659,-0.0641,-0.064,-0.063,-0.0633,-0.0617,-0.0631,-0.063,-0.0631,-0.0632,-0.063,-0.0614,-0.0613,-0.0613,-0.0613,0,-0.0689,-0.0692,-0.0684,-0.0677,-0.0671,-0.0665,-0.066,-0.0655,-0.066,-0.0652,-0.0642,-0.0636,-0.0624,-0.0613,-0.0605,-0.0602,-0.0607,-0.0609,-0.0605,-0.0602,-0.0601,-0.0601,-0.065,-0.0609,-0.0609,-0.061,-0.061,-0.061,-0.066,-0.0651,-0.0649,-0.064,-0.0637,-0.0633,-0.0624,-0.0625,-0.0616,-0.0607,-0.0611,-0.0599,-0.0594,-0.0583,-0.058,-0.057,-0.0576,-0.057,-0.0568,-0.0567,-0.0565,-0.0604,-0.0568,-0.0569,-0.0569,-0.0569,-0.0569,0,-0.0621,-0.0621,-0.0613,-0.0606,-0.0599,-0.0607,-0.0602,-0.0596,-0.0585,-0.0581,-0.0574,-0.0562,-0.0552,-0.0551,-0.0541,-0.0534,-0.0536,-0.0531,-0.0531,-0.053,-0.056,-0.0564,-0.0529,-0.0529,-0.0529,-0.0529,-0.0529,-0.0529,-0.06,-0.0585,-0.0587,-0.0571,-0.057,-0.0559,-0.0556,-0.0551,-0.0548,-0.0535,-0.0527,-0.0527,-0.0524,-0.0515,-0.0506,-0.0506,-0.0502,-0.0495,-0.0496,-0.0524,-0.0528,-0.0532,-0.0535,-0.0495,-0.0495,-0.0466,-0.0466,-0.0466]}]]